User: anonymous
Location: Unspecified
(0.0000°N, 0.0000°E)
Time: 02:19:18
(UTC+02:00)
Language:

Cosmos 1072 Rocket - Orbit

View from above orbital plane
View from above orbital plane
View from above satellite
View from above satellite

Ground track
Ground track

The orbit data is extracted from the following two-line orbital elements,

1 11239U 79003B   14264.74946675  .00000117  00000-0  10575-3 0  3657
2 11239 082.9351 110.3875 0039562 305.2745 103.0598 13.75733463790433
Epoch (UTC): 21 September 2014 17:59:13
Eccentricity: 0.0039562
inclination: 82.9351°
perigee height: 950 km
apogee height: 1008 km
right ascension of ascending node: 110.3875°
argument of perigee: 305.2745°
revolutions per day: 13.75733463
mean anomaly at epoch: 103.0598°
orbit number at epoch: 79043

The dashed part of the orbit path shows where the satellite is in the earth's shadow,  

DLR